Карточка аэропорта UWGG

Внимание!
Информация на этой странице в стадии наполнения.
Если вы не увидели какой-то информации, или заметили неточность - пожалуйста сообщите нам!
Спасибо!
Команда RU-STAFF
Название аэропортаСтригино
Название аэропорта (англ.)Strigino
Превышение256 ft. (78 m.)
Координаты56°13.8', 43°47.202'
Высота перехода5000 ft
Эшелон переходаQNH>=1013hPa:FL060; QNH<1013hPa:FL070; QNH<977hPa:FL080
Коды ответчика2120-2147
Зона ОрВДМосква РПИ (UUWV)
Данные METARUWGG 290700Z VRB01MPS 9000 -DZ OVC003 08/08 Q1007 R36R/190060 NOSIG
Проноз погоды (TAF)UWGG 290450Z 2906/3006 09003MPS 6000 -DZ OVC004 TX13/2912Z TN08/2906Z TEMPO 2906/2908 BKN007 BECMG 2908/2910 BKN016
NOTAMshow/hide NOTAM
AWOS   TABLE

Информация о ВПП

ВПП Длина ВПП (м.) Покрытие Курс ВПП Частота ILS
18L3000Цементобетон179108.1
18R2806Асфальтобетон179109.9
36L2806Асфальтобетон359109.5
36R3000Цементобетон359110.5

Диспетчерские позиции

Позывной Наименование органа УВД Частота
UWGG_APPНижний-Подход124.700
UWGG_GNDНижний-Руление121.800
UWGG_R_APPНижний-Круг120.800
UWGG_TWRНижний-Вышка120.400



Спутниковое изображение